Temp
56 48 45 52 55 58 58 56 55 60 65 59 59 59 63 68 70 70 72 73 75 77 82 84 83 83 82 81 80 79 76 75 74 72 70 70 66 65 66 68 71 73 73 73
49 44 56 59 59 55 55 53 53 58 61 57 56 56 62 66 67 69 71 72 74 76 80 82 83 82 80 79 78 78 77 75 74 73 72 72 71 69 69 68 69 71 73 74
46 52 57 55 53 50 49 48 50 52 58 60 56 52 57 65 68 70 72 73 75 75 77 80 81 83 82 80 78 77 77 75 74 74 74 73 74 72 70 68 68 71 73 73
49 58 52 51 49 52 45 56 54 51 46 40 57 41 55 62 64 68 71 74 76 77 78 79 79 80 81 80 80 79 77 76 74 75 74 72 70 68 70 70 70 70 72 72
48 50 49 46 49 54 49 57 53 51 48 47 49 42 52 62 60 65 70 73 76 78 78 79 79 80 81 80 79 78 77 75 74 73 75 73 71 72 72 72 69 70 70 72
53 58 56 54 56 56 57 52 51 49 42 32 44 43 48 57 62 66 71 74 75 77 78 79 80 79 79 79 78 77 76 77 74 74 74 73 71 71 71 69 68 68 70 69
48 48 55 56 50 55 52 46 32 30 30 33 52 43 50 61 65 67 68 72 74 77 75 74 74 75 76 76 75 75 76 75 77 74 73 73 72 71 71 70 69 68 67 68
38 36 49 54 52 47 46 45 36 29 32 39 49 40 50 64 68 68 70 72 71 71 74 73 72 72 72 72 74 74 73 74 76 76 72 73 72 71 72 72 71 69 69 69
40 41 54 55 55 55 46 39 50 39 37 33 44 51 59 63 63 66 68 70 69 70 70 71 71 70 70 69 70 72 71 72 73 74 73 71 71 71 71 71 72 72 72 71
48 39 51 52 55 55 51 53 36 35 28 28 41 45 49 57 62 67 68 67 68 69 70 70 71 71 69 68 68 68 69 69 71 71 73 71 71 70 71 71 70 71 72 72
49 46 42 48 42 43 45 43 44 44 38 34 34 45 62 62 65 64 66 65 66 66 67 70 70 71 71 68 66 65 66 65 67 69 70 70 70 70 70 70 70 71 71 72
50 42 36 40 51 53 51 47 47 38 36 40 39 41 64 63 64 64 64 64 66 67 69 70 69 69 71 70 70 65 64 61 63 66 68 68 69 69 69 69 70 71 70 71
49 36 31 33 41 45 43 47 49 48 46 36 33 42 62 65 65 66 65 66 67 68 69 68 68 67 69 70 68 68 63 61 61 62 65 65 66 67 68 69 69 69 69 69
51 41 37 34 39 44 36 43 48 45 35 37 40 45 55 61 61 64 65 65 66 66 66 66 67 67 67 67 69 67 66 63 60 60 63 61 64 65 67 68 68 68 68 67
48 33 41 44 46 44 41 37 41 41 41 37 45 47 53 58 61 64 64 63 63 63 64 65 64 64 66 65 66 66 64 60 55 56 58 60 63 64 66 65 65 64 63 63
48 32 37 34 43 44 35 41 42 40 39 41 45 44 57 61 63 61 61 62 60 61 62 61 61 62 63 63 64 62 62 59 53 53 53 54 56 57 58 59 57 56 56 57
41 34 32 31 38 36 29 37 43 44 46 46 38 49 57 57 58 59 59 59 57 56 55 55 55 56 57 60 62 61 61 57 52 50 50 50 51 51 51 52 51 50 52 53
37 34 33 31 31 24 41 50 51 47 48 52 52 54 56 57 58 59 56 53 52 52 51 51 50 50 52 56 58 59 56 54 49 49 48 48 48 49 47 46 45 45 44 46
47 39 32 29 30 37 43 45 44 43 44 53 51 54 56 53 54 54 53 51 49 49 48 47 47 47 50 50 47 49 50 49 47 46 46 44 43 42 42 41 43 40 40 39
39 44 35 29 27 26 41 47 51 51 35 49 50 48 47 50 46 52 49 49 47 47 45 43 43 45 45 42 42 43 45 45 44 40 40 40 39 40 40 38 38 36 37 36
31 32 30 32 29 33 45 45 51 34 38 46 47 45 45 45 46 45 46 45 45 44 41 40 40 39 40 38 37 38 42 38 37 36 36 36 36 37 38 37 35 35 35 35
33 30 30 31 28 26 47 44 41 44 43 42 41 41 39 40 40 41 41 40 40 38 37 35 34 34 37 35 33 34 35 36 37 35 35 35 34 35 35 35 34 34 35 35
33 41 36 37 36 43 45 40 39 41 42 37 39 37 36 35 37 37 35 36 36 35 33 33 31 32 34 33 31 29 31 33 33 33 33 34 34 34 34 34 34 35 36 36
37 44 37 36 42 43 40 37 37 38 37 35 34 33 33 33 34 32 32 33 33 33 31 30 29 28 28 30 30 30 30 31 32 33 33 34 34 34 33 33 34 35 36 36
40 39 35 35 39 38 37 39 36 33 32 31 31 31 31 31 31 31 30 30 31 31 30 29 27 26 26 28 28 29 28 27 29 32 33 33 34 33 33 33 34 33 33 35
39 39 37 36 41 41 36 34 32 32 31 30 28 28 30 29 28 28 27 29 29 28 27 26 25 24 24 25 25 26 25 24 25 30 33 33 33 33 32 33 33 36 36 37
MSLP
1017.05 1016.53 1015.07 1015.44 1015.60 1015.31 1014.44 1013.81 1013.12 1012.87 1012.77 1013.29 1012.86 1012.03 1011.61 1011.03 1010.23 1009.81 1009.58 1009.40 1009.15 1008.90 1008.87 1009.05 1009.41 1010.05 1010.51 1010.90 1011.49 1011.59 1011.99 1012.84 1013.99 1014.60 1015.12 1015.57 1016.13 1017.24 1017.84 1018.03 1017.91 1017.86 1018.31 1018.87
1016.99 1015.09 1015.14 1015.39 1015.35 1015.30 1014.93 1014.22 1013.78 1013.87 1013.98 1014.25 1013.45 1011.80 1011.37 1010.67 1009.58 1009.21 1009.02 1008.69 1008.47 1008.28 1008.24 1008.10 1008.33 1008.82 1009.50 1010.18 1010.50 1011.03 1011.47 1012.01 1012.45 1013.13 1013.64 1014.37 1015.05 1015.89 1016.42 1016.94 1017.12 1017.07 1017.31 1017.81
1015.59 1014.81 1015.33 1015.23 1015.32 1015.28 1015.20 1014.85 1014.66 1014.39 1014.25 1013.88 1013.44 1010.67 1009.96 1009.38 1008.62 1008.18 1008.13 1008.04 1007.79 1007.77 1007.49 1007.23 1007.41 1007.62 1008.13 1008.72 1009.40 1009.92 1010.30 1010.90 1011.74 1011.98 1012.99 1013.68 1014.33 1014.96 1015.30 1015.62 1015.95 1015.95 1016.34 1016.64
1015.38 1014.80 1015.04 1015.05 1014.90 1015.23 1014.89 1015.27 1015.08 1015.21 1015.40 1014.56 1013.88 1010.50 1009.11 1008.67 1007.78 1007.08 1006.66 1006.36 1006.39 1006.63 1006.81 1006.59 1006.76 1006.93 1007.19 1007.51 1008.27 1008.88 1009.36 1009.89 1010.38 1011.28 1011.64 1011.99 1012.06 1012.31 1012.64 1013.51 1014.36 1014.93 1015.19 1015.60
1014.07 1014.23 1014.47 1014.61 1014.52 1014.94 1014.84 1015.22 1015.41 1015.68 1015.35 1015.07 1014.07 1013.04 1008.57 1007.77 1006.62 1005.83 1005.69 1005.71 1005.72 1005.79 1005.85 1005.83 1005.93 1006.05 1006.44 1006.89 1007.31 1007.81 1008.38 1008.76 1009.24 1010.03 1010.20 1010.50 1011.07 1011.26 1011.90 1012.70 1013.38 1013.91 1014.09 1014.45
1013.77 1014.16 1014.05 1013.95 1014.43 1014.89 1015.33 1015.88 1016.02 1016.19 1016.48 1015.31 1013.85 1013.15 1007.78 1006.95 1005.99 1005.47 1005.13 1005.01 1005.24 1005.43 1005.44 1005.64 1005.75 1005.88 1005.99 1006.26 1006.73 1007.07 1007.56 1008.01 1008.65 1008.72 1009.20 1009.48 1009.58 1009.99 1010.82 1011.49 1012.11 1012.45 1012.90 1013.36
1013.91 1013.69 1014.05 1014.31 1014.21 1014.66 1015.44 1015.85 1016.20 1016.63 1016.31 1013.98 1012.42 1012.26 1007.81 1006.90 1006.23 1006.08 1005.33 1005.25 1005.39 1005.19 1005.67 1005.77 1005.72 1005.77 1005.66 1005.79 1006.03 1006.24 1006.59 1006.95 1007.25 1007.90 1008.00 1008.18 1008.65 1009.16 1009.21 1009.69 1010.52 1011.34 1011.68 1012.11
1012.93 1013.14 1013.23 1013.70 1013.38 1013.83 1014.68 1015.37 1014.97 1014.64 1014.61 1012.97 1012.14 1009.87 1007.29 1006.39 1006.01 1005.75 1005.35 1005.50 1005.89 1005.82 1005.76 1005.90 1006.07 1006.05 1005.84 1005.74 1005.54 1005.55 1005.89 1006.14 1006.42 1006.49 1007.44 1007.47 1007.64 1008.20 1008.56 1008.87 1009.15 1009.67 1010.10 1010.38
1011.86 1012.00 1012.00 1012.69 1013.41 1013.62 1014.18 1014.55 1014.51 1014.77 1014.77 1013.94 1011.24 1008.61 1007.03 1006.05 1005.82 1005.28 1005.22 1005.42 1005.63 1005.80 1006.12 1006.01 1006.10 1006.11 1005.70 1005.66 1005.62 1005.42 1005.68 1005.73 1005.72 1005.73 1006.27 1006.86 1007.20 1007.28 1007.40 1007.91 1008.42 1008.64 1008.90 1009.25
1011.42 1011.75 1012.04 1012.83 1013.55 1013.43 1013.27 1014.00 1014.95 1015.42 1014.40 1012.89 1009.94 1007.91 1005.57 1004.84 1004.75 1004.49 1004.47 1005.21 1005.63 1005.94 1006.11 1006.02 1005.73 1005.72 1005.71 1005.46 1005.40 1005.35 1005.31 1005.42 1005.46 1005.23 1005.19 1005.76 1005.77 1006.52 1006.83 1007.21 1007.36 1007.65 1007.86 1008.37
1011.82 1011.61 1012.46 1012.78 1012.66 1012.54 1013.31 1013.32 1013.74 1013.84 1013.61 1011.47 1009.22 1006.40 1004.65 1004.08 1003.91 1004.34 1004.74 1005.36 1005.89 1006.08 1006.12 1005.72 1005.50 1005.45 1005.50 1005.29 1004.99 1004.83 1005.03 1005.16 1005.39 1004.83 1004.53 1005.04 1004.44 1005.16 1005.86 1006.13 1006.34 1006.60 1006.95 1007.34
1011.38 1012.47 1012.44 1012.45 1012.42 1012.67 1012.56 1012.21 1012.64 1012.41 1011.71 1011.54 1010.28 1006.32 1004.95 1004.76 1004.54 1004.74 1005.21 1005.66 1005.77 1005.97 1005.80 1005.64 1005.32 1005.13 1004.89 1004.83 1004.82 1004.39 1004.77 1005.13 1004.92 1004.77 1004.41 1004.69 1004.15 1004.19 1004.80 1005.05 1005.32 1005.78 1005.98 1006.42
1011.22 1012.58 1012.93 1012.96 1012.97 1013.11 1012.45 1012.23 1012.21 1012.34 1012.05 1011.05 1010.53 1006.12 1004.80 1004.02 1004.14 1004.53 1005.18 1005.36 1005.51 1005.51 1005.54 1005.43 1005.21 1005.09 1004.72 1004.42 1004.36 1004.12 1004.22 1004.75 1004.75 1004.16 1004.22 1004.30 1003.36 1003.92 1003.93 1004.08 1004.63 1005.07 1005.50 1005.71
1011.02 1011.91 1011.75 1010.94 1011.14 1011.65 1012.41 1011.78 1011.48 1011.77 1011.73 1009.60 1009.32 1006.40 1005.48 1004.61 1004.36 1004.76 1005.02 1005.47 1005.64 1005.74 1005.70 1005.57 1005.30 1005.09 1004.90 1004.58 1004.13 1003.85 1003.41 1003.93 1004.02 1003.82 1003.35 1003.22 1003.13 1003.30 1003.61 1003.83 1004.01 1004.20 1004.83 1005.14
1011.40 1011.68 1011.85 1011.35 1011.30 1011.69 1011.78 1011.53 1011.22 1010.77 1010.40 1010.32 1007.92 1007.07 1005.05 1005.36 1005.36 1005.25 1005.48 1005.90 1005.95 1005.97 1005.93 1005.89 1005.80 1005.36 1004.89 1004.42 1003.95 1003.57 1003.13 1003.39 1004.04 1003.69 1003.43 1002.60 1003.08 1003.18 1003.50 1003.65 1003.56 1003.94 1004.40 1004.68
1011.17 1011.78 1012.23 1012.09 1011.85 1011.61 1011.89 1011.49 1010.94 1010.68 1010.14 1010.04 1008.49 1007.82 1005.25 1006.04 1006.14 1006.07 1006.20 1006.29 1006.54 1006.73 1006.74 1006.76 1006.56 1005.95 1005.18 1004.59 1004.13 1003.70 1003.36 1002.99 1003.46 1003.39 1003.20 1002.71 1002.54 1002.67 1003.44 1004.04 1004.16 1004.10 1004.49 1004.75
1010.97 1011.89 1012.38 1012.05 1011.88 1011.90 1011.47 1009.44 1009.65 1009.49 1009.28 1008.50 1008.33 1005.61 1006.34 1006.31 1006.37 1006.55 1006.83 1007.39 1007.80 1008.23 1008.31 1008.07 1007.71 1007.12 1006.32 1005.38 1004.70 1003.93 1003.68 1003.64 1003.57 1003.64 1003.59 1003.47 1002.81 1002.49 1003.05 1004.27 1004.77 1004.60 1004.62 1004.92
1010.63 1011.78 1012.41 1012.31 1012.26 1011.15 1008.20 1008.02 1007.61 1007.80 1007.72 1007.80 1007.14 1005.81 1006.78 1006.85 1007.02 1007.49 1008.42 1009.09 1009.31 1009.48 1009.45 1009.24 1008.80 1008.05 1007.27 1006.29 1005.33 1004.59 1004.32 1004.10 1004.03 1003.96 1003.90 1004.09 1003.45 1003.14 1003.65 1003.98 1004.58 1004.86 1004.88 1004.94
1010.70 1011.48 1011.97 1012.06 1011.46 1009.63 1007.99 1007.65 1007.44 1007.23 1007.03 1007.07 1006.90 1007.05 1007.41 1008.02 1008.08 1008.56 1009.70 1010.31 1010.40 1010.60 1010.52 1010.39 1009.98 1009.28 1008.15 1007.43 1006.93 1005.94 1005.05 1004.54 1004.58 1004.87 1004.73 1005.08 1004.69 1003.76 1003.88 1004.03 1004.19 1004.74 1005.13 1005.42
1011.18 1011.09 1011.64 1011.83 1010.96 1009.52 1007.39 1007.33 1007.38 1007.59 1007.71 1007.76 1007.92 1008.50 1009.06 1009.12 1009.01 1009.26 1010.29 1010.87 1011.19 1011.41 1011.40 1011.06 1010.53 1009.87 1009.26 1008.86 1008.10 1006.94 1006.12 1005.66 1005.66 1005.67 1005.50 1005.37 1005.30 1004.58 1004.31 1003.80 1004.31 1004.54 1005.03 1005.52
1010.92 1011.12 1010.60 1010.61 1010.36 1009.08 1008.09 1008.38 1008.32 1008.74 1008.82 1009.12 1009.61 1010.15 1010.50 1010.61 1011.18 1011.47 1011.79 1011.94 1012.13 1012.23 1012.30 1012.00 1011.33 1010.73 1010.26 1009.88 1009.22 1008.35 1007.46 1007.31 1007.07 1006.86 1006.66 1005.91 1005.78 1005.62 1005.17 1004.97 1005.17 1005.04 1005.09 1005.72
1009.46 1009.75 1009.86 1010.39 1010.00 1008.82 1008.22 1009.29 1009.23 1009.30 1010.06 1010.75 1011.42 1011.85 1012.22 1012.48 1012.81 1012.75 1012.51 1012.67 1012.78 1012.82 1012.59 1012.38 1011.90 1011.48 1010.99 1010.90 1010.44 1009.76 1009.04 1008.69 1008.01 1007.39 1006.89 1006.31 1005.85 1006.10 1005.50 1005.11 1005.27 1005.50 1005.72 1006.45
1008.93 1008.29 1008.67 1008.76 1008.19 1008.33 1008.63 1009.46 1010.24 1010.65 1011.10 1012.31 1012.79 1013.45 1013.81 1013.93 1013.90 1014.14 1013.84 1013.43 1013.15 1013.20 1013.20 1013.06 1012.74 1012.18 1011.82 1011.77 1011.70 1011.01 1010.37 1009.75 1008.99 1008.41 1007.69 1006.84 1006.38 1005.83 1005.62 1005.56 1005.65 1005.49 1005.69 1006.21
1008.71 1008.48 1008.82 1009.13 1008.27 1008.84 1009.75 1010.63 1011.33 1012.08 1012.70 1013.57 1014.20 1014.56 1014.87 1014.85 1014.85 1014.84 1014.61 1014.31 1014.00 1013.81 1013.73 1013.72 1013.46 1013.03 1012.61 1012.45 1012.19 1011.82 1011.28 1010.50 1009.48 1008.48 1007.83 1007.47 1007.13 1006.86 1006.35 1006.00 1005.70 1005.61 1006.05 1006.42
1008.33 1008.66 1009.03 1009.41 1009.71 1010.19 1010.82 1011.35 1012.29 1013.32 1014.03 1014.60 1015.12 1015.40 1015.50 1015.52 1015.42 1015.41 1015.26 1015.04 1014.76 1014.60 1014.51 1014.45 1014.18 1013.77 1013.32 1012.97 1012.55 1012.10 1011.59 1010.94 1009.97 1008.98 1008.29 1007.77 1007.62 1007.33 1006.93 1006.60 1006.24 1006.00 1005.97 1006.05
1008.45 1008.52 1009.28 1009.68 1009.82 1010.20 1011.25 1012.30 1013.42 1014.06 1014.75 1015.43 1015.86 1016.05 1016.18 1016.26 1016.13 1016.05 1015.80 1015.59 1015.37 1015.13 1015.07 1014.85 1014.68 1014.30 1013.81 1013.35 1012.84 1012.33 1011.98 1011.51 1010.54 1009.25 1008.34 1007.99 1007.70 1007.67 1007.63 1007.37 1007.03 1006.75 1006.34 1006.17
Wind_Speed
13 11 16 17 19 18 16 17 16 13 6 11 17 21 20 21 23 22 21 20 21 21 20 16 16 15 17 16 18 19 19 19 14 13 13 12 13 10 12 11 15 14 13 14
9 21 17 16 17 21 20 19 19 14 7 10 19 25 23 23 26 24 23 23 22 22 21 18 18 16 17 18 18 19 19 19 18 14 14 12 12 12 12 11 14 15 15 15
17 4 21 16 18 19 18 19 15 15 12 15 17 28 26 26 29 26 25 26 26 25 23 21 18 18 17 19 19 19 20 20 18 19 12 11 11 10 11 13 13 15 17 17
16 19 15 18 21 18 19 16 15 13 9 10 4 14 20 20 23 23 19 19 20 20 20 19 17 19 18 17 16 19 20 21 20 21 16 21 16 15 15 14 12 14 18 18
12 16 16 19 17 16 12 10 10 12 14 15 18 12 5 8 14 14 13 15 17 17 16 17 16 14 16 14 16 17 19 20 21 20 21 17 18 14 10 11 15 16 16 19
22 4 14 21 13 13 5 10 10 9 3 8 15 13 10 11 7 6 7 14 13 14 13 11 13 11 12 10 12 14 18 20 20 21 23 22 22 18 14 14 13 13 13 13
18 17 8 7 18 18 15 10 3 5 5 8 10 14 19 7 10 17 18 13 13 11 10 12 13 12 11 10 12 14 18 20 20 22 23 24 23 21 21 19 14 14 13 13
17 13 26 14 19 9 20 14 6 9 6 6 11 14 13 5 8 11 11 9 10 9 5 6 8 9 10 11 11 13 17 18 19 19 21 20 23 14 15 16 14 13 13 14
18 18 3 18 15 19 14 19 17 13 1 4 8 18 18 15 17 19 14 9 1 4 5 6 7 7 7 8 11 10 14 17 17 18 17 19 18 20 17 19 16 13 15 13
9 12 11 20 15 21 17 11 4 5 7 10 15 19 15 6 10 12 7 11 2 5 6 9 10 10 8 7 7 9 11 15 17 15 16 16 18 18 18 15 18 17 16 16
7 9 7 14 16 18 15 18 8 6 7 5 6 10 6 9 7 1 6 2 6 7 12 13 11 11 9 7 7 7 9 10 14 13 15 17 16 17 17 17 18 18 17 16
22 1 7 13 2 16 20 26 23 10 9 5 10 19 4 4 1 5 5 5 6 9 13 14 14 13 10 10 9 6 8 10 12 12 13 16 13 14 16 17 18 17 17 16
18 7 5 4 8 7 13 21 21 23 14 14 9 15 3 14 12 5 8 12 13 14 17 15 13 13 14 13 10 8 7 9 9 10 12 12 11 13 16 17 16 16 16 15
17 10 15 13 3 5 9 24 24 21 13 23 16 27 20 10 11 16 17 14 17 17 16 15 15 14 15 14 14 12 9 7 9 8 11 9 10 12 13 15 15 15 15 15
12 9 15 19 18 7 11 8 18 25 26 16 25 26 23 21 19 16 17 16 16 16 16 15 16 15 16 16 15 13 12 6 7 9 10 9 10 9 11 12 12 10 11 11
15 4 7 10 18 19 11 12 17 20 20 19 26 24 26 19 21 17 13 17 15 17 17 16 17 17 17 15 14 13 13 9 4 6 8 6 7 5 5 6 6 6 6 7
15 7 5 7 8 7 5 24 21 21 23 23 22 31 18 17 13 16 15 15 14 14 16 17 18 17 17 16 16 13 12 7 4 5 5 6 4 5 5 4 5 6 6 6
11 8 2 1 5 9 11 3 16 24 23 21 22 27 17 17 15 14 9 8 10 14 16 17 16 18 18 17 15 14 8 6 5 6 5 6 5 6 6 8 7 4 2 5
13 11 4 5 10 11 13 8 7 10 14 18 23 19 12 9 10 4 8 9 10 13 14 14 15 16 16 16 16 15 8 6 5 6 6 7 8 6 7 6 6 4 4 3
2 13 9 5 9 11 5 3 4 7 8 7 8 8 2 6 4 7 14 14 13 14 13 15 16 15 14 15 15 13 11 7 6 9 8 6 7 6 4 4 5 3 2 2
6 7 16 13 8 7 2 6 8 8 2 8 7 4 0 1 6 12 12 13 12 13 15 16 15 14 15 13 14 12 10 11 10 8 6 5 6 6 3 2 3 2 3 4
12 9 7 6 10 16 7 5 8 5 6 7 4 3 3 6 8 11 15 14 13 13 14 14 13 13 12 12 13 13 11 12 12 10 9 6 2 4 1 4 2 3 4 4
9 6 6 10 5 3 3 3 5 4 7 5 4 2 3 7 6 7 11 14 14 13 12 12 13 14 12 12 12 13 13 13 12 11 9 7 7 4 3 2 3 4 6 5
6 4 2 2 6 5 6 5 5 5 6 6 3 1 4 7 7 8 9 11 11 11 11 11 12 13 13 13 13 11 11 11 11 9 9 8 5 4 3 2 2 2 0 1
2 12 6 4 2 1 3 4 8 7 5 4 2 2 5 7 7 8 9 10 10 11 10 10 10 11 11 11 12 11 11 11 10 9 6 5 5 4 3 3 1 1 1 1
7 6 7 5 2 2 4 9 6 6 4 2 1 3 4 6 8 9 9 10 10 10 10 9 10 10 10 10 11 11 10 12 11 9 5 3 2 1 2 1 4 14 7 4
Wind_Direction
200 210 213 206 221 234 255 245 254 252 243 296 271 273 275 273 266 265 262 261 263 266 265 257 247 245 237 224 222 211 198 196 193 196 195 198 195 195 210 214 216 208 205 205
192 231 218 221 226 235 242 253 251 256 277 276 277 273 270 268 269 265 266 268 269 269 266 261 250 235 229 225 217 215 211 201 195 195 198 202 194 200 210 209 216 215 207 205
207 234 216 226 227 225 234 239 245 263 291 275 287 283 261 252 255 258 256 262 262 264 267 267 263 245 228 224 218 214 210 205 205 200 196 201 200 206 204 207 210 212 210 206
226 224 186 215 225 221 241 240 256 262 273 258 259 288 289 290 275 272 273 262 258 254 255 263 262 260 249 233 225 219 212 209 203 203 198 200 202 200 208 205 206 206 209 211
209 206 207 211 206 209 233 250 242 246 253 267 257 271 279 269 280 272 260 265 260 263 262 270 267 267 248 251 232 220 219 212 203 203 206 203 207 215 202 206 206 208 206 210
231 181 226 227 221 224 207 241 258 259 320 240 233 228 281 256 272 313 277 267 273 267 273 302 291 283 274 256 247 232 218 224 213 206 207 211 209 207 205 202 206 205 205 206
222 219 221 233 223 218 219 210 205 220 211 244 209 207 245 292 269 290 271 292 307 297 308 292 292 298 297 266 243 233 225 227 219 213 212 209 216 213 211 208 204 202 203 207
207 211 220 196 223 188 207 188 211 215 207 246 190 232 243 238 256 273 276 299 308 290 321 346 340 328 316 296 277 241 228 232 228 216 219 218 216 217 220 218 211 211 210 210
200 221 219 201 205 202 192 219 236 276 309 275 225 249 261 253 245 267 259 265 233 24 360 8 356 345 343 320 290 268 238 239 237 228 217 219 221 220 217 220 221 219 215 214
200 226 181 192 210 226 233 154 148 204 223 230 240 246 247 188 224 265 244 194 284 323 323 342 342 341 324 320 306 278 273 248 247 233 225 223 217 223 225 224 222 222 220 215
213 237 164 162 207 204 208 224 230 210 222 229 251 240 260 284 272 239 348 122 335 354 335 332 336 326 315 294 296 289 278 264 257 240 229 229 215 218 223 225 224 222 220 216
203 298 213 205 110 218 219 221 215 216 213 269 281 268 294 286 222 343 320 8 331 309 328 334 328 318 315 314 312 267 263 250 245 251 237 234 227 223 226 228 227 224 222 216
189 209 187 248 280 230 237 228 229 233 252 235 215 261 263 232 259 276 310 326 327 326 327 320 317 316 315 319 303 304 250 245 247 223 237 237 223 229 229 228 228 225 222 216
176 195 212 223 118 127 214 232 227 228 224 235 226 259 251 245 290 311 315 328 319 319 322 322 319 319 312 311 307 305 294 243 242 240 234 233 234 232 236 232 226 221 220 216
191 220 220 236 256 264 246 229 240 220 227 226 238 244 260 266 279 293 323 310 312 322 320 325 324 319 315 311 307 302 300 279 212 225 239 225 229 234 241 236 223 219 222 217
202 226 213 244 245 248 241 251 230 225 237 247 263 267 263 281 293 297 299 310 323 321 327 335 328 327 321 320 315 308 300 295 251 246 243 227 208 196 231 252 234 197 200 203
187 160 157 227 198 241 272 239 242 241 224 225 232 244 273 273 294 295 319 325 335 338 330 330 329 327 321 322 319 306 306 301 274 272 275 257 222 178 184 231 228 211 193 187
181 167 126 232 139 216 238 240 235 235 235 239 252 261 279 288 306 303 38 10 340 332 332 332 332 327 326 319 324 323 310 309 308 297 285 271 223 190 187 183 204 215 197 194
189 183 181 219 213 283 289 209 191 190 247 240 246 265 289 317 294 140 44 9 352 335 331 331 330 327 327 343 338 331 326 339 334 317 309 296 269 204 184 185 172 155 170 165
209 202 207 156 225 231 318 139 135 150 260 142 129 118 144 302 264 114 4 352 340 339 339 334 335 335 344 345 339 333 338 342 6 357 341 343 321 303 237 167 149 137 127 175
169 179 209 212 240 263 242 124 168 176 176 122 115 117 45 322 20 322 329 333 337 339 339 339 341 343 344 347 341 342 347 2 344 339 329 356 338 320 339 58 16 103 91 86
186 173 189 192 209 243 150 144 216 101 92 123 113 112 317 315 324 314 322 327 333 335 341 349 343 340 347 358 352 345 359 343 336 334 330 334 353 304 345 109 77 75 93 105
204 204 193 203 217 94 122 63 90 78 134 137 169 153 283 290 307 315 311 321 332 339 342 345 343 335 346 357 350 342 338 335 333 329 325 325 324 326 329 168 168 141 148 157
219 183 232 121 200 202 152 108 108 96 110 123 124 254 285 293 312 308 313 320 323 333 339 341 338 337 334 342 340 335 326 326 322 325 331 325 318 316 341 354 1 93 185 223
140 147 164 256 215 107 172 171 151 133 116 133 158 258 293 311 316 325 320 320 321 324 330 333 329 328 327 331 328 329 333 331 326 319 319 320 316 328 349 5 334 168 165 193
181 164 184 219 137 277 87 144 146 158 155 144 288 296 311 315 318 324 316 319 318 322 323 323 323 318 319 323 323 329 341 334 321 317 318 317 322 353 344 347 68 40 56 93